Content
SEND FEEDBACK

Daily
Averages
Monthly
Summary
United Kingdom

NEWTOWNNARDS, NORTHERN IRELAND


Home > Europe > United Kingdom > Northern Ireland
Elevation: 112 feet     Latitude: 54 40N     Longitude: 005 35W

WEATHER
 
SELECT A DAY
Number of Records: 190,692;   Date Range: 7/1/96 - 7/28/14
 
SHARE

PRINT THIS DATA

[ ← Previous Day ]
WEATHER ALMANAC - JANUARY 31, 2013
[ Next Day → ]
[ °C ]   °F
Weather ElementAverageHighLow
Temperature44 °F46.4 °F (11:50 am)41 °F (8:20 pm)
Dewpoint37.2 °F39.2 °F (6:50 am)35.6 °F (9:50 am)
Humidity77.2 %87 % (6:50 am)71 % (9:50 am)
Barometer29.54 in29.62 in (6:20 pm)29.36 in (6:50 am)
Wind Speed20.9 mph34.5 mph (9:20 am)
Wind Gust51.8 mph (8:50 am)
Weather ElementAverage
Visibility6.2 mi
Wind DirectionSW (227.8 °)

Weather ElementTotal
Precipitation---
Heating Degree Days21.3 (Base 65)
Averaged from 32 records on January 31, 2013
WEATHER CONDITIONS BREAKOUT
WIND DIRECTION BREAKOUT
WEATHER BY HOUR - JANUARY 31, 2013
[ °C ]   °F
Local TimeTemperatureDewpointHumidityBarometerVisibilityWind DirectionWind SpeedGust SpeedPrecipitationEventsConditions
6:50 AM42.8 °F39.2 °F87 %29.36 in6.2 miSW (230°)27.6 mph42.6 mphRainRain
7:20 AM42.8 °F37.4 °F81 %29.39 in6.2 miSW (230°)24.2 mph36.8 mphMostly Cloudy
7:50 AM42.8 °F37.4 °F81 %29.39 in6.2 miSW (230°)27.6 mph42.6 mphRainLight Rain
8:20 AM44.6 °F37.4 °F76 %29.39 in6.2 miWSW (240°)31.1 mph43.7 mphScattered Clouds
8:50 AM42.8 °F37.4 °F81 %29.39 in6.2 miWSW (240°)32.2 mph51.8 mphRainLight Rain
9:20 AM44.6 °F37.4 °F76 %29.39 in6.2 miWSW (240°)34.5 mph50.6 mphScattered Clouds
9:50 AM44.6 °F35.6 °F71 %29.44 in6.2 miSW (230°)25.3 mph44.9 mphPartly Cloudy
10:20 AM44.6 °F37.4 °F76 %29.50 in6.2 miSW (220°)23.0 mph34.5 mphPartly Cloudy
10:50 AM44.6 °F35.6 °F71 %29.50 in6.2 miSW (220°)23.0 mph34.5 mphPartly Cloudy
11:20 AM44.6 °F35.6 °F71 %29.53 in6.2 miSW (230°)19.6 mph32.2 mphPartly Cloudy
11:50 AM46.4 °F37.4 °F71 %29.53 in6.2 miWSW (240°)24.2 mphRainLight Rain Showers
12:20 PM46.4 °F37.4 °F71 %29.56 in6.2 miSW (230°)23.0 mphRainLight Rain Showers
12:50 PM46.4 °F37.4 °F71 %29.56 in6.2 miSW (230°)21.9 mph34.5 mphPartly Cloudy
1:20 PM42.8 °F39.2 °F87 %29.59 in6.2 miSW (230°)25.3 mph39.1 mphRainLight Rain Showers
1:50 PM44.6 °F37.4 °F76 %29.56 in6.2 miWSW (240°)21.9 mph33.4 mphPartly Cloudy
2:20 PM46.4 °F37.4 °F71 %29.59 in6.2 miWSW (240°)23.0 mph34.5 mphPartly Cloudy
2:50 PM46.4 °F39.2 °F76 %29.59 in6.2 miSW (230°)15.0 mphScattered Clouds
3:20 PM46.4 °F37.4 °F71 %29.59 in6.2 miSW (230°)16.1 mphScattered Clouds
3:50 PM46.4 °F37.4 °F71 %29.59 in6.2 miWSW (240°)17.3 mphScattered Clouds
4:20 PM46.4 °F37.4 °F71 %29.59 in6.2 miSW (230°)15.0 mphScattered Clouds
4:50 PM46.4 °F37.4 °F71 %29.59 in6.2 miSW (230°)18.4 mphScattered Clouds
5:20 PM44.6 °F37.4 °F76 %29.59 in6.2 miSW (230°)18.4 mphScattered Clouds
5:50 PM44.6 °F37.4 °F76 %29.59 in6.2 miSW (220°)19.6 mph31.1 mphRainLight Rain Showers
6:20 PM42.8 °F37.4 °F81 %29.62 in6.2 miSW (230°)16.1 mphScattered Clouds
6:50 PM42.8 °F37.4 °F81 %29.62 in6.2 miSW (220°)16.1 mphPartly Cloudy
7:20 PM42.8 °F37.4 °F81 %29.62 in6.2 miSW (220°)15.0 mphPartly Cloudy
7:50 PM42.8 °F37.4 °F81 %29.62 in6.2 miSW (230°)19.6 mph38.0 mphRainLight Rain Showers
8:20 PM41.0 °F37.4 °F87 %29.62 in6.2 miSW (220°)15.0 mphRainLight Rain Showers
8:50 PM41.0 °F37.4 °F87 %29.62 in6.2 miSSW (210°)11.5 mphPartly Cloudy
9:20 PM41.0 °F35.6 °F81 %29.62 in6.2 miSSW (210°)16.1 mphPartly Cloudy
9:50 PM41.0 °F35.6 °F81 %29.59 in6.2 miSSW (210°)15.0 mphPartly Cloudy
10:20 PM41.0 °F35.6 °F81 %29.59 in6.2 miSSW (210°)16.1 mphPartly Cloudy
Hourly data recorded from EGAC, located miles away from Newtownnards, Northern Ireland







STORIES FROM OUR PARTNERS